This is the latest recevied weather packets stored in our database for station/object KI4MRC. If no packets are shown the sender has not sent any weather packets the latest 10 day(s).
| Time | Temp. | Humidity | Pressure | Rain* | Wind** | Luminosity | Snow |
|---|---|---|---|---|---|---|---|
| 1777672938 | 30° C | 63% | 1009.8 hPa | 0 mm | - | 46 W/m² | - |
| 1777672635 | 30.56° C | 61% | 1009.6 hPa | 0 mm | - | 46 W/m² | - |
| 1777672330 | 30.56° C | 60% | 1009.8 hPa | 0 mm | - | 46 W/m² | - |
| 1777672025 | 30.56° C | 60% | 1009.6 hPa | 0 mm | - | 51 W/m² | - |
| 1777671721 | 30.56° C | 60% | 1009.8 hPa | 0 mm | - | 47 W/m² | - |
| 1777671418 | 31.11° C | 58% | 1009.9 hPa | 0 mm | - | 49 W/m² | - |
| 1777671113 | 32.22° C | 52% | 1009.9 hPa | 0 mm | - | 49 W/m² | - |
| 1777670810 | 32.22° C | 45% | 1009.9 hPa | 0 mm | - | 49 W/m² | - |
| 1777670507 | 32.22° C | 41% | 1009.8 hPa | 0 mm | - | 81 W/m² | - |
| 1777670204 | 32.22° C | 41% | 1009.7 hPa | 0 mm | - | 59 W/m² | - |
| 1777669901 | 32.22° C | 43% | 1009.9 hPa | 0 mm | - | 54 W/m² | - |
| 1777669598 | 32.22° C | 42% | 1009.9 hPa | 0 mm | - | 52 W/m² | - |
| 1777669295 | 32.22° C | 42% | 1009.7 hPa | 0 mm | - | 53 W/m² | - |
| 1777668991 | 32.78° C | 41% | 1009.9 hPa | 0 mm | - | 53 W/m² | - |
| 1777668689 | 32.78° C | 44% | 1009.9 hPa | 0 mm | - | 56 W/m² | - |
| 1777668385 | 32.78° C | 44% | 1010.2 hPa | 0 mm | - | 94 W/m² | - |
| 1777668081 | 32.78° C | 43% | 1010.1 hPa | 0 mm | - | 57 W/m² | - |
| 1777667778 | 32.78° C | 42% | 1010.1 hPa | 0 mm | - | 61 W/m² | - |
| 1777667475 | 32.78° C | 40% | 1009.9 hPa | 0 mm | - | 73 W/m² | - |
| 1777667173 | 32.78° C | 41% | 1010.1 hPa | 0 mm | - | 104 W/m² | - |
| 1777666869 | 32.78° C | 41% | 1010 hPa | 0 mm | - | 63 W/m² | - |
| 1777666566 | 32.78° C | 40% | 1010.1 hPa | 0 mm | - | 76 W/m² | - |
| 1777666262 | 32.78° C | 44% | 1010.1 hPa | 0 mm | - | 58 W/m² | - |
| 1777665959 | 32.22° C | 43% | 1010.2 hPa | 0 mm | - | 57 W/m² | - |
| 1777665657 | 32.78° C | 44% | 1010.5 hPa | 0 mm | - | 102 W/m² | - |
* Rain latest hour (hover to see other rain measurements)
** Current wind speed in m/s (hover to see current wind gust speed)